Location: Newark
(43.0000°N, 1.6781°W)
Time: 23:05:58
(UTC+00:00)

Vanguard 1 - Pass Details

Date: 04 December 2021
Orbit: 652 x 3830 km, 34.2° (Epoch: 17 January)

Event Time Altitude Azimuth Distance (km) Brightness Sun altitude
Exits shadow 03:16:10 63° 208° (SSW) 3,682 12.5 -44.0°
Maximum altitude 03:17:50 65° 189° (S) 3,577 12.5 -43.7°
Drops below altitude 10° 03:33:35 10° 112° (ESE) 4,983 14.2 -40.9°
Sets 03:36:41 0° 109° (ESE) 5,648 14.7 -40.3°
